[[{"header":{"parameterUnit":"m.s-1","parameterCategory":2,"la1":30.2991,"la2":30.254,"lo1":-89.0895,"lo2":-89.0444,"dy":0.0017,"dx":0.0017,"nx":28,"ny":28,"refTime":"2025-09-14T09:00:00:Z","depth":"0","parameterNumber":2,"parameterNumberName":"U-component_of_CURRENTS"},"data":[0,0,0,0,0,0,0,0,0,0,0,0,0,0,0,0,0,0,0,0,0,0,0,0,0,0,0,0,0,0,0,0,0,0,0,0,0,0,0,0,0,0,0,0,0,0,0,0,0,0,0,0,0,0,0,0,0,0,0.3549,0.355,0,0.3576,0.3576,0.3576,0.3576,0.3576,0.3576,0.3576,0.3576,0.3576,0.3576,0,0,0,0,0,0,0,0,0,0,0,0,0,0.3436,0.3438,0.3549,0.355,0.355,0.3576,0.3576,0.3576,0.3576,0.3576,0.3576,0.3576,0.3576,0.3576,0.3576,0,0,0,0,0,0,0,0,0,0,0,0,0,0.3474,0.3439,0.3549,0.3555,0.3556,0.3576,0.3576,0.3576,0.3576,0.3576,0.3576,0.3576,0.3576,0.3576,0.3576,0.3581,0,0,0.3577,0.3577,0,0,0,0,0,0,0,0,0.3472,0.3478,0.3554,0.3555,0.3556,0.3575,0.3536,0.3578,0.3576,0.3566,0.3576,0.3576,0.3575,0.3575,0.3577,0.3581,0.3581,0.3577,0.3577,0.3577,0.3577,0,0,0,0,0,0,0,0.347,0.3477,0.3557,0.3554,0.3556,0.3535,0.3541,0.3544,0.3569,0.3567,0.3568,0.3574,0.3575,0.3577,0.3577,0.3581,0.3577,0.3577,0.3577,0.3577,0.3626,0.3627,0,0,0,0,0,0,0.3475,0.3475,0.3557,0.3559,0.3515,0.3538,0.3544,0.3567,0.3569,0.3571,0.3575,0.3574,0.3577,0.3577,0.3577,0.3622,0.3577,0.3577,0.3577,0.3624,0.3626,0.3627,0,0,0,0,0,0,0.3473,0.3483,0.3556,0.3518,0.3526,0.3541,0.3566,0.3568,0.3569,0.3576,0.3576,0.3575,0.3577,0.3577,0.3598,0.362,0.3577,0.3577,0.3623,0.3625,0.3627,0.3686,0,0,0,0,0,0,0.347,0.3482,0.3498,0.3519,0.3528,0.3574,0.3567,0.3568,0.3575,0.3575,0.3576,0.3576,0.3577,0.3598,0.3598,0.362,0.3577,0.3622,0.3624,0.3626,0.3682,0.3689,0.3695,0,0,0,0,0,0.3466,0.3489,0.3499,0.3509,0.3552,0.3575,0.3578,0.3585,0.3575,0.3583,0.3592,0.3576,0.3612,0.3599,0.3599,0.3621,0.3621,0.3623,0.3626,0.3679,0.3688,0.3695,0,0,0,0,0,0,0.3432,0.3493,0.3503,0.354,0.3559,0.3576,0.3582,0.3584,0.3596,0.3595,0.3592,0.3594,0.3622,0.3612,0.3598,0.3642,0.3613,0.3615,0.3653,0.3661,0.3668,0.3642,0.3577,0,0,0,0,0,0.3438,0.3481,0.3516,0.3542,0.3554,0.3566,0.3574,0.3583,0.3597,0.36,0.3606,0.3614,0.3633,0.3639,0.3651,0.3671,0.3712,0.3685,0.3691,0.3697,0.3677,0.3779,0.3793,0.3636,0.3636,0.3636,0,0,0.3427,0.3468,0.3488,0.3539,0.3551,0.3575,0.357,0.3588,0.3609,0.3599,0.3625,0.3637,0.3645,0.3678,0.3688,0.3671,0.3774,0.37,0.3705,0.3681,0.3783,0.3799,0.3812,0.3638,0.3637,0.3637,0,0,0.3431,0.3466,0.3504,0.3526,0.3562,0.3577,0.3583,0.3609,0.3621,0.3652,0.3657,0.368,0.3701,0.3718,0.3727,0.3771,0.3808,0.3777,0.3787,0.3888,0.3902,0.3914,0.4035,0.4058,0.3778,0.3778,0.3778,0,0.3414,0.3472,0.351,0.3544,0.3563,0.3579,0.3605,0.3624,0.3653,0.3681,0.3667,0.3728,0.3719,0.3776,0.3777,0.3785,0.3858,0.376,0.3898,0.3911,0.3923,0.4043,0.4068,0.3781,0.3781,0.378,0.378,0,0.3455,0.3486,0.3502,0.3564,0.3588,0.361,0.3647,0.3677,0.3693,0.3721,0.3781,0.3787,0.3822,0.3827,0.3802,0.3881,0.3915,0.3902,0.3881,0.3943,0.4066,0.409,0.3786,0.3785,0.3784,0.3783,0,0,0.3443,0.3521,0.3521,0.3548,0.3601,0.3624,0.3673,0.3733,0.3776,0.3808,0.3873,0.3882,0.389,0.3897,0.3894,0.3946,0.4088,0.3945,0.3949,0.407,0.4347,0.4321,0.4346,0.4115,0.4119,0.4121,0.4418,0,0.3457,0.3519,0.356,0.36,0.363,0.3671,0.3717,0.3774,0.3821,0.389,0.3922,0.3973,0.3921,0.3942,0.399,0.4062,0.4146,0.4009,0.4262,0.427,0.4243,0.437,0.4195,0.4439,0.4442,0.4446,0.4449,0,0.3485,0.3524,0.3572,0.3634,0.3652,0.368,0.377,0.3815,0.3916,0.3959,0.4024,0.4054,0.4129,0.407,0.4254,0.418,0.4253,0.4308,0.4322,0.4279,0.4286,0.4367,0.4483,0.4313,0.4486,0.4483,0.4481,0,0.3472,0.3529,0.357,0.3589,0.3665,0.3698,0.3742,0.3836,0.3896,0.4006,0.4071,0.4172,0.4238,0.4343,0.4424,0.4367,0.4643,0.4597,0.4661,0.4663,0.4547,0.4531,0.4519,0.4739,0.4739,0.4738,0.4737,0,0.3486,0.3513,0.3562,0.3584,0.3631,0.3688,0.3758,0.3824,0.3934,0.4008,0.4095,0.4179,0.4304,0.4456,0.4516,0.4683,0.4745,0.469,0.4741,0.4567,0.455,0.4419,0.4352,0.4749,0.4746,0.4744,0.4742,0,0.3476,0.3513,0.3549,0.3608,0.3627,0.3658,0.3754,0.3811,0.3923,0.4028,0.407,0.4247,0.4444,0.4592,0.4797,0.4816,0.4834,0.5002,0.4796,0.4813,0.4659,0.4604,0.4542,0.4412,0.5135,0.5136,0.5137,0,0.3484,0.3501,0.3542,0.3559,0.3584,0.3637,0.3679,0.3788,0.3846,0.4051,0.4098,0.4335,0.4473,0.4811,0.491,0.5107,0.4902,0.5025,0.4844,0.4648,0.4626,0.4432,0.431,0.4755,0.4753,0.4751,0.475,0,0.3481,0.3487,0.3512,0.3547,0.3576,0.3599,0.366,0.3708,0.3835,0.3955,0.4116,0.4259,0.457,0.4694,0.4947,0.5012,0.4755,0.4992,0.4841,0.4369,0.4106,0.4004,0.4584,0.4734,0.4735,0.4736,0.4737,0.4738,0.3464,0.3466,0.3499,0.3517,0.3548,0.3546,0.3532,0.3619,0.3715,0.3844,0.4042,0.4212,0.4431,0.4764,0.481,0.4719,0.4695,0.456,0.4539,0.4381,0.4129,0.4678,0.4832,0.4834,0.4836,0.4837,0.4839,0,0.3431,0.3445,0.3474,0.3476,0.346,0.3492,0.3505,0.3472,0.3528,0.373,0.3879,0.4082,0.4237,0.4366,0.4407,0.4269,0.4069,0.4132,0.3784,0.3709,0.4261,0.411,0.4046,0.4046,0.4047,0.4047,0.4047,0.4047,0.342,0.3424,0.3425,0.3378,0.3368,0.3289,0.3252,0.3244,0.3333,0.344,0.3543,0.3699,0.3909,0.4059,0.3936,0.3847,0.3516,0.3402,0.3379,0.3725,0.3759,0.3791,0.3628,0.3465,0.3464,0.2637,0.2631,0.2627]},{"header":{"parameterUnit":"m.s-1","parameterCategory":2,"la1":30.2991,"la2":30.254,"lo1":-89.0895,"lo2":-89.0444,"dy":0.0017,"dx":0.0017,"nx":28,"ny":28,"refTime":"2025-09-14T09:00:00:Z","depth":"0","parameterNumber":3,"parameterNumberName":"V-component_of_CURRENTS"},"data":[0,0,0,0,0,0,0,0,0,0,0,0,0,0,0,0,0,0,0,0,0,0,0,0,0,0,0,0,0,0,0,0,0,0,0,0,0,0,0,0,0,0,0,0,0,0,0,0,0,0,0,0,0,0,0,0,0,0,-0.0493,-0.0493,0,-0.054,-0.054,-0.0541,-0.0588,-0.0589,-0.0589,-0.059,-0.0731,-0.0734,-0.0737,0,0,0,0,0,0,0,0,0,0,0,0,0,-0.044,-0.044,-0.0493,-0.0493,-0.0494,-0.054,-0.054,-0.0541,-0.0588,-0.0589,-0.059,-0.059,-0.073,-0.0734,-0.0738,0,0,0,0,0,0,0,0,0,0,0,0,0,-0.0473,-0.0441,-0.0493,-0.0522,-0.0525,-0.054,-0.054,-0.0541,-0.0588,-0.0589,-0.059,-0.0591,-0.0729,-0.0733,-0.0738,-0.0751,0,0,-0.0753,-0.0755,0,0,0,0,0,0,0,0,-0.0471,-0.0475,-0.0517,-0.052,-0.0524,-0.0559,-0.0573,-0.0616,-0.0588,-0.0565,-0.059,-0.0591,-0.0681,-0.069,-0.0696,-0.0757,-0.0763,-0.0753,-0.0756,-0.0758,-0.076,0,0,0,0,0,0,0,-0.0468,-0.0473,-0.0512,-0.0518,-0.0522,-0.0532,-0.0538,-0.0581,-0.062,-0.0567,-0.057,-0.0574,-0.0684,-0.0691,-0.07,-0.0765,-0.0753,-0.0758,-0.0761,-0.0762,-0.0852,-0.0852,0,0,0,0,0,0,-0.0461,-0.0471,-0.051,-0.0513,-0.0498,-0.0532,-0.0539,-0.0547,-0.0617,-0.0628,-0.0573,-0.0576,-0.0683,-0.0694,-0.0706,-0.0728,-0.0758,-0.0763,-0.0766,-0.0853,-0.0852,-0.0852,0,0,0,0,0,0,-0.046,-0.0464,-0.0509,-0.0492,-0.0499,-0.0532,-0.0541,-0.0547,-0.0556,-0.0621,-0.0634,-0.0576,-0.0684,-0.0699,-0.0742,-0.0734,-0.0765,-0.0769,-0.0853,-0.0853,-0.0852,-0.0771,0,0,0,0,0,0,-0.0458,-0.0463,-0.0465,-0.0492,-0.0499,-0.0514,-0.054,-0.0548,-0.0557,-0.0561,-0.0627,-0.0641,-0.0686,-0.0734,-0.0747,-0.0741,-0.0773,-0.0854,-0.0853,-0.0852,-0.0774,-0.0767,-0.0762,0,0,0,0,0,-0.0456,-0.0443,-0.0465,-0.0469,-0.0501,-0.0513,-0.0518,-0.0545,-0.0556,-0.0556,-0.06,-0.0639,-0.0737,-0.0738,-0.0753,-0.0748,-0.0855,-0.0853,-0.0852,-0.0777,-0.0769,-0.0762,0,0,0,0,0,0,-0.04,-0.0448,-0.0472,-0.047,-0.0493,-0.0521,-0.0516,-0.0538,-0.057,-0.0574,-0.0637,-0.0654,-0.0689,-0.0727,-0.0726,-0.077,-0.0801,-0.0802,-0.0738,-0.0731,-0.0725,-0.0684,-0.0777,0,0,0,0,0,-0.0394,-0.041,-0.0448,-0.0445,-0.0453,-0.0485,-0.0492,-0.0513,-0.0544,-0.0558,-0.0606,-0.0654,-0.0694,-0.0719,-0.0764,-0.0788,-0.077,-0.0793,-0.0787,-0.0781,-0.0757,-0.0726,-0.0714,-0.0848,-0.0848,-0.0848,0,0,-0.0368,-0.0397,-0.0404,-0.0436,-0.0453,-0.0452,-0.0491,-0.0495,-0.0496,-0.057,-0.0586,-0.0638,-0.0696,-0.0724,-0.0743,-0.0756,-0.0729,-0.078,-0.0774,-0.0753,-0.0723,-0.071,-0.0698,-0.0847,-0.0847,-0.0847,0,0,-0.0321,-0.0351,-0.0352,-0.0368,-0.0396,-0.0418,-0.0417,-0.0451,-0.047,-0.0498,-0.0546,-0.0582,-0.0654,-0.0682,-0.0707,-0.0691,-0.0699,-0.0716,-0.065,-0.0621,-0.0608,-0.0598,-0.0529,-0.0513,-0.071,-0.071,-0.0709,0,-0.0285,-0.0295,-0.0348,-0.0344,-0.0343,-0.0398,-0.038,-0.0404,-0.0449,-0.0454,-0.0496,-0.0565,-0.0626,-0.0634,-0.0636,-0.0674,-0.0645,-0.0674,-0.0609,-0.0598,-0.0588,-0.0521,-0.0505,-0.0706,-0.0706,-0.0706,-0.0707,0,-0.0246,-0.0246,-0.0236,-0.0262,-0.027,-0.0258,-0.0301,-0.0313,-0.035,-0.0377,-0.0403,-0.0477,-0.0508,-0.0544,-0.0593,-0.0559,-0.0554,-0.0604,-0.062,-0.0569,-0.0503,-0.0486,-0.07,-0.0701,-0.0702,-0.0703,0,0,-0.0166,-0.0205,-0.0196,-0.0185,-0.0223,-0.0212,-0.022,-0.0231,-0.02,-0.0279,-0.024,-0.0342,-0.0373,-0.0402,-0.0462,-0.0454,-0.0372,-0.0496,-0.0497,-0.0412,-0.0264,-0.0243,-0.0224,-0.041,-0.0407,-0.0405,-0.0234,0,-0.011,-0.0081,-0.0125,-0.0076,-0.0054,-0.0104,-0.0091,-0.0111,-0.0139,-0.0117,-0.0198,-0.019,-0.032,-0.0311,-0.0334,-0.0352,-0.033,-0.0411,-0.034,-0.0336,-0.0312,-0.0205,-0.0238,-0.0087,-0.0218,-0.0215,-0.0213,0,-0.0047,-0.0036,0.0016,0.0034,0.0041,0.0062,0.0095,0.0097,0.009,0.0075,0.0046,-0.0005,-0.001,-0.0121,-0.0125,-0.0168,-0.0204,-0.0233,-0.0228,-0.0223,-0.0286,-0.0167,-0.0053,-0.0306,-0.0189,-0.0191,-0.0192,0,0.0061,0.0075,0.0124,0.013,0.0134,0.0162,0.0168,0.0167,0.0212,0.0226,0.0284,0.0218,0.0259,0.0171,0.0083,-0.0002,0.0109,-0.0014,-0.0025,-0.0023,-0.0042,-0.0046,-0.0151,0.0002,0.0002,0.0001,0.0001,0,0.0152,0.0205,0.0187,0.0229,0.0313,0.0276,0.0375,0.037,0.0419,0.052,0.0411,0.0509,0.0337,0.0351,0.0207,0.0183,0.0213,0.0037,0.0033,-0.0014,-0.0017,-0.0234,-0.0374,0.0008,0.0006,0.0005,0.0004,0,0.0283,0.0262,0.0336,0.0356,0.0371,0.0443,0.0514,0.0591,0.0621,0.0764,0.0794,0.0794,0.0825,0.0668,0.0596,0.0409,0.0224,0.0313,0.0293,0.0282,-0.0023,-0.0155,-0.0178,-0.0274,0.0326,0.0328,0.033,0,0.0355,0.0399,0.0451,0.0504,0.0523,0.0608,0.0675,0.0699,0.0791,0.0953,0.1052,0.1133,0.1218,0.113,0.0837,0.0655,0.0378,0.0457,0.0255,0.0006,-0.0145,-0.0247,-0.0336,0.0277,0.0278,0.0279,0.0279,0,0.0494,0.0508,0.056,0.0663,0.0741,0.0839,0.0936,0.1045,0.1114,0.1269,0.1493,0.1596,0.1509,0.1342,0.1059,0.0849,0.0267,0.0466,0.0204,-0.0173,-0.0282,-0.0392,0.0136,0.0286,0.0285,0.0284,0.0284,0.0284,0.0601,0.0662,0.0717,0.082,0.0917,0.1062,0.1168,0.1306,0.151,0.176,0.1828,0.2042,0.1706,0.1333,0.1024,0.0361,0.0368,0.0099,-0.0022,-0.0088,-0.0246,0.0325,0.0454,0.0454,0.0454,0.0454,0.0455,0,0.0707,0.076,0.0865,0.0985,0.1114,0.1139,0.1333,0.146,0.1727,0.2006,0.2227,0.2208,0.176,0.122,0.0375,-0.0074,-0.0294,-0.0342,-0.0556,-0.0614,-0.0106,-0.0184,-0.0183,-0.0183,-0.0183,-0.0182,-0.0182,-0.0182,0.0764,0.0867,0.0908,0.112,0.1219,0.1395,0.1513,0.1735,0.1954,0.2307,0.2477,0.2587,0.2125,0.063,-0.0408,-0.0642,-0.1004,-0.1021,-0.1168,-0.093,-0.0902,-0.0875,-0.0986,-0.1153,-0.1154,-0.1668,-0.1673,-0.1677]}],[{"header":{"parameterUnit":"m.s-1","parameterCategory":2,"la1":30.2991,"la2":30.254,"lo1":-89.0895,"lo2":-89.0444,"dy":0.0017,"dx":0.0017,"nx":28,"ny":28,"refTime":"2025-09-14T09:00:00:Z","depth":"2","parameterNumber":2,"parameterNumberName":"U-component_of_CURRENTS"},"data":[0,0,0,0,0,0,0,0,0,0,0,0,0,0,0,0,0,0,0,0,0,0,0,0,0,0,0,0,0,0,0,0,0,0,0,0,0,0,0,0,0,0,0,0,0,0,0,0,0,0,0,0,0,0,0,0,0,0,0.2824,0.2822,0,0.275,0.2751,0.2752,0.2818,0.2818,0.2819,0.282,0.2848,0.2848,0.2848,0,0,0,0,0,0,0,0,0,0,0,0,0,0.2614,0.2622,0.2825,0.2822,0.2819,0.275,0.2751,0.2752,0.2818,0.2819,0.282,0.282,0.2848,0.2848,0.2848,0,0,0,0,0,0,0,0,0,0,0,0,0,0.266,0.2625,0.2825,0.2828,0.2826,0.275,0.2751,0.2752,0.2817,0.2819,0.282,0.2821,0.2848,0.2848,0.2848,0.2823,0,0,0.2848,0.2848,0,0,0,0,0,0,0,0,0.2658,0.2671,0.2831,0.2828,0.2825,0.2776,0.2685,0.2774,0.2817,0.2842,0.282,0.2822,0.2819,0.2822,0.2833,0.2825,0.2826,0.2848,0.2848,0.2848,0.2848,0,0,0,0,0,0,0,0.2655,0.2671,0.2816,0.2827,0.2824,0.2691,0.2706,0.2702,0.2843,0.284,0.284,0.2798,0.2822,0.2833,0.2834,0.2826,0.2848,0.2848,0.2848,0.2848,0.2894,0.2895,0,0,0,0,0,0,0.2645,0.2672,0.2818,0.2812,0.2719,0.2694,0.2711,0.2808,0.2841,0.284,0.2797,0.2801,0.2832,0.2834,0.2835,0.2903,0.2848,0.2848,0.2848,0.2893,0.2894,0.2896,0,0,0,0,0,0,0.2643,0.2665,0.2821,0.2713,0.2721,0.2698,0.2805,0.2805,0.2827,0.2803,0.2809,0.2817,0.2833,0.2835,0.2867,0.29,0.2848,0.2848,0.2891,0.2893,0.2895,0.2976,0,0,0,0,0,0,0.2641,0.2669,0.2684,0.2719,0.2727,0.2777,0.2801,0.2802,0.2788,0.2795,0.2821,0.2825,0.2834,0.2867,0.2867,0.2899,0.2848,0.289,0.2892,0.2894,0.2972,0.298,0.2988,0,0,0,0,0,0.2636,0.2658,0.269,0.27,0.2774,0.2774,0.2769,0.2762,0.2788,0.2793,0.2836,0.2825,0.2882,0.2868,0.2868,0.2901,0.2889,0.2891,0.2894,0.2968,0.2979,0.2988,0,0,0,0,0,0,0.2595,0.2666,0.2701,0.2756,0.276,0.2778,0.2765,0.2765,0.2802,0.2819,0.2838,0.2844,0.2888,0.2875,0.286,0.292,0.2883,0.2886,0.2939,0.2949,0.2957,0.2969,0.2848,0,0,0,0,0,0.2588,0.2623,0.2676,0.2709,0.2746,0.2765,0.2747,0.2748,0.2782,0.2801,0.2834,0.2865,0.2894,0.2907,0.2925,0.2947,0.2967,0.2968,0.2976,0.2983,0.2992,0.3051,0.3066,0.2905,0.2905,0.2905,0,0,0.259,0.2607,0.264,0.2692,0.2736,0.2775,0.277,0.2769,0.2797,0.2794,0.288,0.2892,0.2906,0.2954,0.2969,0.2949,0.3044,0.2986,0.2992,0.2998,0.3056,0.3072,0.3086,0.2907,0.2906,0.2906,0,0,0.2593,0.2658,0.2703,0.27,0.2703,0.2736,0.2744,0.2795,0.2836,0.2872,0.2903,0.2939,0.2975,0.3009,0.3024,0.3077,0.3086,0.3077,0.3128,0.3186,0.3201,0.3213,0.3284,0.3302,0.308,0.308,0.308,0,0.2562,0.2664,0.2697,0.2713,0.2708,0.2744,0.279,0.283,0.2864,0.2904,0.2908,0.3005,0.3008,0.3082,0.3108,0.3098,0.3137,0.3093,0.3199,0.3212,0.3223,0.3292,0.3311,0.3084,0.3084,0.3083,0.3083,0,0.2618,0.2661,0.2692,0.2768,0.2768,0.279,0.2856,0.2919,0.2969,0.2977,0.3063,0.309,0.3144,0.3151,0.3147,0.3233,0.3239,0.3206,0.3179,0.3245,0.3313,0.3332,0.309,0.3089,0.3087,0.3086,0,0,0.2616,0.2723,0.2714,0.2761,0.2786,0.2812,0.2913,0.3003,0.3075,0.3111,0.3201,0.3249,0.3248,0.3266,0.3274,0.3319,0.3434,0.3301,0.3302,0.3379,0.3589,0.3458,0.3466,0.3428,0.3431,0.3433,0.3613,0,0.2647,0.2733,0.2744,0.2808,0.2895,0.2929,0.3003,0.3052,0.3129,0.3221,0.3259,0.3324,0.3296,0.3334,0.3376,0.3427,0.3483,0.3389,0.3506,0.351,0.3391,0.3482,0.32,0.3324,0.3631,0.3634,0.3637,0,0.2673,0.2725,0.2828,0.2895,0.2936,0.2957,0.3102,0.315,0.3262,0.3317,0.339,0.3413,0.3511,0.3461,0.3601,0.355,0.3576,0.3602,0.3609,0.3467,0.3412,0.3301,0.3346,0.3667,0.3665,0.3662,0.366,0,0.2679,0.2757,0.2852,0.2858,0.2955,0.3015,0.308,0.3181,0.3239,0.3387,0.3451,0.3542,0.3614,0.3678,0.3724,0.3687,0.3859,0.3811,0.3725,0.3718,0.3488,0.3453,0.3899,0.3899,0.3898,0.3898,0.3897,0,0.2679,0.273,0.2869,0.2898,0.2981,0.3028,0.3116,0.3217,0.3314,0.3374,0.3485,0.3566,0.367,0.3764,0.3789,0.3824,0.3921,0.376,0.3758,0.3507,0.3474,0.3761,0.3742,0.3905,0.3903,0.3902,0.3901,0,0.2654,0.2743,0.2829,0.2953,0.2988,0.3036,0.3123,0.3196,0.3309,0.3421,0.3475,0.3617,0.3749,0.3839,0.3952,0.3901,0.395,0.3925,0.3629,0.3584,0.3762,0.3746,0.3878,0.3875,0.3873,0.3871,0.3869,0,0.2673,0.2723,0.2855,0.2897,0.2947,0.3029,0.309,0.319,0.3257,0.3435,0.3488,0.3649,0.3717,0.3847,0.3815,0.3864,0.3927,0.36,0.3447,0.3777,0.3762,0.375,0.3738,0.3205,0.3198,0.3192,0.3187,0,0.2682,0.272,0.28,0.288,0.2943,0.2997,0.3099,0.3114,0.3238,0.3323,0.3409,0.3472,0.3619,0.3504,0.3561,0.3534,0.3569,0.3478,0.3936,0.3223,0.3147,0.313,0.314,0.3135,0.314,0.3144,0.3147,0.3149,0.2695,0.2711,0.2803,0.284,0.2913,0.2927,0.2902,0.2968,0.2972,0.3005,0.3188,0.3195,0.3262,0.3169,0.3105,0.3065,0.3286,0.3141,0.3157,0.318,0.304,0.2959,0.2889,0.2893,0.2896,0.2899,0.2901,0,0.2683,0.2707,0.2766,0.2794,0.2793,0.2872,0.2877,0.277,0.2677,0.2777,0.2794,0.2604,0.257,0.2671,0.2529,0.2528,0.2493,0.2432,0.2368,0.2422,0.247,0.229,0.1943,0.194,0.1937,0.1934,0,0,0.2706,0.2689,0.2672,0.2633,0.2672,0.2601,0.2545,0.2375,0.2341,0.2185,0.2182,0.2396,0.2567,0.2201,0.2171,0.2037,0.2204,0.1958,0.2732,0.2709,0.2752,0.2891,0.2677,0,0,0,0,0]},{"header":{"parameterUnit":"m.s-1","parameterCategory":2,"la1":30.2991,"la2":30.254,"lo1":-89.0895,"lo2":-89.0444,"dy":0.0017,"dx":0.0017,"nx":28,"ny":28,"refTime":"2025-09-14T09:00:00:Z","depth":"2","parameterNumber":3,"parameterNumberName":"V-component_of_CURRENTS"},"data":[0,0,0,0,0,0,0,0,0,0,0,0,0,0,0,0,0,0,0,0,0,0,0,0,0,0,0,0,0,0,0,0,0,0,0,0,0,0,0,0,0,0,0,0,0,0,0,0,0,0,0,0,0,0,0,0,0,0,0.0139,0.014,0,0.0091,0.0089,0.0087,0.0016,0.0016,0.0017,0.0017,-0.0029,-0.0031,-0.0033,0,0,0,0,0,0,0,0,0,0,0,0,0,0.0153,0.0151,0.0138,0.014,0.0141,0.0091,0.0089,0.0087,0.0016,0.0016,0.0017,0.0017,-0.0029,-0.0031,-0.0033,0,0,0,0,0,0,0,0,0,0,0,0,0,0.0112,0.0151,0.0138,0.0113,0.0112,0.0092,0.0089,0.0086,0.0015,0.0016,0.0017,0.0017,-0.0028,-0.0031,-0.0033,-0.0062,0,0,-0.0041,-0.0042,0,0,0,0,0,0,0,0,0.0115,0.0109,0.0116,0.0115,0.0114,0.0076,0.0078,0.0043,0.0015,0.0032,0.0017,0.0018,0.0018,0.0012,-0.0026,-0.0064,-0.0066,-0.0041,-0.0042,-0.0044,-0.0044,0,0,0,0,0,0,0,0.0117,0.0111,0.0101,0.0117,0.0116,0.0101,0.0094,0.0069,0.0007,0.0031,0.003,0.0054,0.0015,-0.0023,-0.0027,-0.0067,-0.0041,-0.0043,-0.0045,-0.0046,-0.013,-0.0131,0,0,0,0,0,0,0.0161,0.0114,0.0103,0.0101,0.0137,0.0101,0.0093,0.0072,0.0007,0.0004,0.0054,0.0052,-0.0019,-0.0024,-0.0028,-0.0034,-0.0044,-0.0046,-0.0047,-0.0129,-0.013,-0.0131,0,0,0,0,0,0,0.016,0.0158,0.0105,0.0124,0.0119,0.0102,0.0079,0.0072,0.0039,0.0029,0.0021,0.0033,-0.0019,-0.0025,-0.0039,-0.0037,-0.0047,-0.0049,-0.0129,-0.013,-0.0131,-0.0065,0,0,0,0,0,0,0.016,0.0157,0.0167,0.0126,0.012,0.0115,0.008,0.0071,0.0062,0.0057,0.0008,0.0004,-0.0019,-0.0035,-0.0042,-0.0041,-0.0051,-0.0128,-0.0129,-0.013,-0.0066,-0.0064,-0.0062,0,0,0,0,0,0.0159,0.0177,0.0166,0.0167,0.0129,0.0119,0.0111,0.0091,0.0061,0.0056,0.0019,0.0005,-0.005,-0.0037,-0.0045,-0.0044,-0.0127,-0.0129,-0.013,-0.0067,-0.0064,-0.0062,0,0,0,0,0,0,0.0178,0.0172,0.0159,0.0169,0.0159,0.0114,0.0118,0.0092,0.005,0.0046,0.0003,-0.0003,-0.0017,-0.0045,-0.0032,-0.0078,-0.0094,-0.0097,-0.0044,-0.0041,-0.0039,-0.0011,-0.0053,0,0,0,0,0,0.0193,0.0213,0.0187,0.0204,0.0187,0.0143,0.0139,0.0126,0.0092,0.0071,0.0028,-0.0013,-0.0035,-0.0046,-0.0075,-0.0094,-0.0117,-0.0105,-0.0102,-0.01,-0.0085,-0.0131,-0.013,-0.0137,-0.0137,-0.0137,0,0,0.0201,0.0216,0.0219,0.0214,0.0183,0.0177,0.0135,0.0135,0.0133,0.0077,0.0035,-0.0002,-0.0039,-0.006,-0.007,-0.0078,-0.0109,-0.0102,-0.0099,-0.0085,-0.0132,-0.0131,-0.0131,-0.0138,-0.0138,-0.0137,0,0,0.0244,0.0229,0.025,0.0246,0.0251,0.0222,0.0225,0.0168,0.0138,0.0118,0.0068,0.0036,-0.0013,-0.0043,-0.0059,-0.0064,-0.0095,-0.0084,-0.0046,-0.0091,-0.009,-0.0089,-0.0104,-0.0106,-0.0084,-0.0083,-0.0083,0,0.0264,0.0277,0.0258,0.0278,0.0287,0.024,0.0248,0.0213,0.0166,0.0151,0.0124,0.0037,-0.0001,-0.0018,-0.0027,-0.0055,-0.0079,-0.0046,-0.0085,-0.0085,-0.0085,-0.0101,-0.0103,-0.008,-0.0081,-0.0081,-0.0081,0,0.0306,0.0323,0.033,0.0337,0.0341,0.0346,0.0309,0.0283,0.0242,0.0215,0.0177,0.011,0.0065,0.0035,0.0007,-0.0023,-0.0037,-0.0072,-0.0082,-0.008,-0.0098,-0.0101,-0.0076,-0.0077,-0.0078,-0.0079,0,0,0.0332,0.0353,0.036,0.0372,0.0374,0.0375,0.0369,0.0349,0.0348,0.0286,0.0274,0.0205,0.0158,0.0134,0.0073,0.0028,-0.0003,-0.0021,-0.0025,-0.0017,-0.0082,-0.0125,-0.0133,-0.0049,-0.005,-0.005,-0.0087,0,0.0365,0.0418,0.0423,0.0459,0.046,0.0436,0.0443,0.0435,0.04,0.0372,0.0304,0.0269,0.0199,0.0171,0.0118,0.0023,-0.0012,0.0012,-0.0101,-0.0104,-0.0127,-0.0139,-0.0112,-0.0146,-0.0091,-0.0091,-0.0092,0,0.0401,0.0439,0.0481,0.0516,0.0511,0.0526,0.0528,0.0535,0.0504,0.0478,0.0433,0.0374,0.0301,0.0234,0.01,0.0116,0.003,-0.0043,-0.0047,-0.0109,-0.0153,-0.0145,-0.0155,-0.0098,-0.0098,-0.0097,-0.0097,0,0.0433,0.0478,0.0519,0.053,0.0559,0.0565,0.0567,0.0562,0.058,0.0533,0.0545,0.0446,0.0407,0.0274,0.0122,0.0105,-0.0019,-0.0064,-0.0171,-0.0173,-0.0184,-0.0187,-0.0146,-0.0146,-0.0146,-0.0146,-0.0146,0,0.0479,0.0505,0.0531,0.0552,0.0591,0.0604,0.0642,0.0623,0.0645,0.0699,0.0597,0.0613,0.0412,0.0319,0.0162,-0.0009,0.001,-0.0157,-0.0192,-0.0161,-0.0162,-0.0151,-0.0151,-0.0147,-0.0147,-0.0147,-0.0146,0,0.0505,0.053,0.057,0.0602,0.0605,0.0634,0.068,0.0724,0.0732,0.0796,0.0789,0.0734,0.0609,0.0415,0.0209,0.0058,-0.0117,-0.0177,-0.0114,-0.0143,-0.0246,-0.0243,-0.0305,-0.0307,-0.0308,-0.031,-0.0311,0,0.052,0.0547,0.0589,0.0612,0.0619,0.0662,0.0706,0.0744,0.081,0.0886,0.0933,0.0847,0.0811,0.0496,0.0194,-0.0085,-0.0112,-0.0241,-0.0286,-0.0237,-0.0265,-0.0259,-0.0254,-0.0261,-0.0262,-0.0262,-0.0263,0,0.0525,0.0541,0.0568,0.0626,0.0671,0.0749,0.081,0.0908,0.1004,0.1075,0.1177,0.1158,0.086,0.0578,0.0174,-0.0019,-0.0208,-0.0262,-0.023,-0.0235,-0.0203,-0.0228,-0.0223,-0.0267,-0.0267,-0.0266,-0.0266,-0.0266,0.0494,0.0526,0.0565,0.0635,0.0701,0.0845,0.0965,0.1082,0.1245,0.1399,0.1351,0.1321,0.0981,0.0457,0.0128,-0.0233,-0.0233,-0.0356,-0.0351,-0.0346,-0.0345,-0.0319,-0.0402,-0.0403,-0.0403,-0.0403,-0.0403,0,0.0463,0.0508,0.0565,0.0674,0.0801,0.0822,0.1047,0.1212,0.1458,0.1503,0.1557,0.124,0.0913,0.0532,-0.0005,-0.0328,-0.0342,-0.0421,-0.0358,-0.0353,-0.0348,-0.0344,-0.0403,-0.0403,-0.0404,-0.0404,0,0,0.043,0.05,0.057,0.0758,0.0845,0.1063,0.1241,0.1453,0.1566,0.1649,0.1593,0.1459,0.1005,0.0626,0.0192,-0.0097,-0.0149,-0.0159,-0.0131,-0.0002,0.0008,-0.029,-0.0276,0,0,0,0,0]}],[{"header":{"parameterUnit":"m.s-1","parameterCategory":2,"la1":30.2991,"la2":30.254,"lo1":-89.0895,"lo2":-89.0444,"dy":0.0017,"dx":0.0017,"nx":28,"ny":28,"refTime":"2025-09-14T09:00:00:Z","depth":"4","parameterNumber":2,"parameterNumberName":"U-component_of_CURRENTS"},"data":[0,0,0,0,0,0,0,0,0,0,0,0,0,0,0,0,0,0,0,0,0,0,0,0,0,0,0,0,0,0,0,0,0,0,0,0,0,0,0,0,0,0,0,0,0,0,0,0,0,0,0,0,0,0,0,0,0,0,0.1148,0.115,0,0.1296,0.1298,0.1299,0.1397,0.1398,0.1399,0.14,0.1422,0.1422,0.1422,0,0,0,0,0,0,0,0,0,0,0,0,0,0.108,0.1079,0.1148,0.115,0.1152,0.1296,0.1298,0.13,0.1397,0.1398,0.1399,0.14,0.1422,0.1422,0.1422,0,0,0,0,0,0,0,0,0,0,0,0,0,0.1153,0.1079,0.1147,0.122,0.1229,0.1296,0.1298,0.13,0.1396,0.1398,0.1399,0.1401,0.1422,0.1422,0.1422,0.139,0,0,0.142,0.142,0,0,0,0,0,0,0,0,0.1149,0.1155,0.1208,0.1216,0.1225,0.1333,0.1283,0.1325,0.1396,0.1329,0.14,0.1401,0.1382,0.1385,0.1406,0.1391,0.1392,0.142,0.142,0.142,0.142,0,0,0,0,0,0,0,0.1143,0.115,0.1203,0.121,0.122,0.1291,0.1302,0.1292,0.134,0.1335,0.1343,0.1365,0.1385,0.1407,0.1407,0.1393,0.142,0.142,0.142,0.1419,0.1516,0.1518,0,0,0,0,0,0,0.1123,0.1144,0.1199,0.1208,0.1194,0.1291,0.1303,0.1294,0.1344,0.1355,0.1364,0.1369,0.1407,0.1408,0.1408,0.148,0.142,0.1419,0.1419,0.1513,0.1516,0.1519,0,0,0,0,0,0,0.112,0.1125,0.1193,0.1185,0.1199,0.129,0.128,0.1296,0.1368,0.1367,0.1376,0.1425,0.1408,0.1409,0.1436,0.1477,0.1419,0.1419,0.151,0.1514,0.1518,0.1554,0,0,0,0,0,0,0.1117,0.1122,0.1141,0.1182,0.1198,0.1257,0.128,0.1298,0.1377,0.1387,0.1421,0.1423,0.1409,0.1437,0.1436,0.1476,0.1418,0.1506,0.1512,0.1517,0.1549,0.1559,0.1567,0,0,0,0,0,0.1114,0.1125,0.114,0.1149,0.1208,0.1259,0.1274,0.1343,0.1379,0.1413,0.1437,0.1424,0.1472,0.1438,0.1436,0.1477,0.1504,0.151,0.1516,0.1545,0.1557,0.1567,0,0,0,0,0,0,0.1121,0.1138,0.1155,0.1175,0.1226,0.1277,0.1316,0.1369,0.1419,0.1433,0.1436,0.1438,0.1483,0.1481,0.1444,0.1528,0.1495,0.1501,0.1518,0.1529,0.1538,0.1518,0.1418,0,0,0,0,0,0.1123,0.1126,0.1166,0.1188,0.1203,0.1268,0.1311,0.136,0.1399,0.1428,0.1446,0.1475,0.1501,0.1516,0.1527,0.1555,0.1568,0.1593,0.1602,0.1609,0.1597,0.1688,0.1703,0.154,0.154,0.154,0,0,0.1127,0.1145,0.1147,0.1191,0.1223,0.1256,0.1297,0.1362,0.1411,0.1414,0.1474,0.1498,0.1517,0.1555,0.1578,0.1561,0.1661,0.1617,0.1623,0.1606,0.1696,0.1711,0.1725,0.1545,0.1544,0.1543,0,0,0.1128,0.1149,0.1148,0.119,0.1255,0.1285,0.1313,0.1379,0.143,0.1482,0.1511,0.1558,0.1587,0.1614,0.163,0.1698,0.1704,0.1727,0.175,0.1839,0.1852,0.1864,0.1882,0.1896,0.1733,0.1733,0.1733,0,0.1143,0.1147,0.1166,0.1192,0.1241,0.1296,0.1336,0.1381,0.1461,0.1505,0.1505,0.1596,0.1611,0.1674,0.1705,0.1714,0.175,0.1699,0.1848,0.1861,0.1872,0.1888,0.1902,0.1736,0.1735,0.1735,0.1735,0,0.1138,0.1169,0.1175,0.1207,0.1262,0.1307,0.1366,0.1418,0.1476,0.1535,0.1619,0.1638,0.1697,0.1726,0.1727,0.1831,0.1824,0.1845,0.1811,0.189,0.1902,0.1916,0.1739,0.1738,0.1738,0.1737,0,0,0.1105,0.1155,0.1169,0.1203,0.1286,0.1327,0.1387,0.147,0.153,0.1593,0.168,0.1725,0.176,0.1781,0.1808,0.1877,0.1982,0.1901,0.1904,0.1898,0.2147,0.2012,0.2013,0.2049,0.2053,0.2055,0.2114,0,0.1105,0.1138,0.1187,0.1256,0.1276,0.1361,0.1416,0.1509,0.1578,0.1665,0.1722,0.1809,0.1777,0.1831,0.1886,0.1978,0.2025,0.1961,0.2087,0.2089,0.1945,0.2027,0.2065,0.2125,0.2128,0.213,0.2132,0,0.109,0.1122,0.1172,0.1276,0.1298,0.1362,0.1478,0.1551,0.1671,0.1729,0.1805,0.1866,0.1962,0.1942,0.207,0.2042,0.2087,0.2134,0.2139,0.2004,0.1981,0.2038,0.2157,0.2155,0.2153,0.2151,0.215,0,0.1036,0.1124,0.1166,0.1204,0.1312,0.1381,0.1462,0.1582,0.1659,0.1803,0.1871,0.1966,0.2055,0.2122,0.2187,0.2167,0.2328,0.2315,0.2211,0.22,0.2283,0.227,0.2404,0.2404,0.2403,0.2403,0.2403,0,0.1007,0.1051,0.1151,0.1179,0.1264,0.1375,0.1486,0.1567,0.171,0.1803,0.1916,0.198,0.2123,0.2217,0.2237,0.2252,0.2365,0.2212,0.2221,0.2295,0.2283,0.2291,0.2277,0.2405,0.2405,0.2404,0.2404,0,0.0934,0.0989,0.1052,0.1184,0.1233,0.131,0.1494,0.1553,0.171,0.1833,0.1897,0.206,0.2176,0.2261,0.24,0.232,0.2356,0.2333,0.2377,0.2387,0.2143,0.2131,0.2208,0.2204,0.22,0.2198,0.2195,0,0.0891,0.0904,0.1041,0.1077,0.1149,0.1274,0.1338,0.1522,0.159,0.184,0.1877,0.208,0.2157,0.2218,0.2316,0.2342,0.2319,0.2298,0.2222,0.2129,0.2131,0.2124,0.2117,0.219,0.2189,0.2188,0.2187,0,0.0811,0.0868,0.0914,0.0988,0.1068,0.1151,0.1276,0.1332,0.1542,0.1696,0.1831,0.1929,0.2058,0.2141,0.2199,0.2203,0.2292,0.2262,0.2268,0.2196,0.2109,0.2112,0.2109,0.2176,0.2177,0.2178,0.2179,0,0.0752,0.0762,0.0819,0.0884,0.0957,0.101,0.111,0.1219,0.1335,0.162,0.1657,0.1863,0.2038,0.207,0.2108,0.2124,0.2081,0.1994,0.2013,0.2027,0.1942,0.1803,0.1788,0,0,0,0,0,0.0683,0.0665,0.0707,0.0767,0.0834,0.0894,0.1037,0.1144,0.1359,0.1407,0.1542,0.1653,0.1776,0.1875,0.1855,0.2004,0.2067,0.1968,0.197,0.2111,0.2125,0.2042,0,0,0,0,0,0,0.0613,0.0634,0.0658,0.0646,0.0674,0.0747,0.0845,0.1001,0.105,0.128,0.1358,0.1523,0.166,0.1764,0.1813,0.184,0.1801,0.2092,0.2087,0.2104,0.2116,0.2127,0.2047,0,0,0,0,0]},{"header":{"parameterUnit":"m.s-1","parameterCategory":2,"la1":30.2991,"la2":30.254,"lo1":-89.0895,"lo2":-89.0444,"dy":0.0017,"dx":0.0017,"nx":28,"ny":28,"refTime":"2025-09-14T09:00:00:Z","depth":"4","parameterNumber":3,"parameterNumberName":"V-component_of_CURRENTS"},"data":[0,0,0,0,0,0,0,0,0,0,0,0,0,0,0,0,0,0,0,0,0,0,0,0,0,0,0,0,0,0,0,0,0,0,0,0,0,0,0,0,0,0,0,0,0,0,0,0,0,0,0,0,0,0,0,0,0,0,0.0359,0.0359,0,0.0295,0.0294,0.0293,0.0269,0.0269,0.027,0.027,0.0242,0.0241,0.0239,0,0,0,0,0,0,0,0,0,0,0,0,0,0.0306,0.0308,0.036,0.0359,0.0358,0.0295,0.0294,0.0293,0.0269,0.0269,0.027,0.027,0.0242,0.0241,0.0239,0,0,0,0,0,0,0,0,0,0,0,0,0,0.0293,0.0309,0.036,0.034,0.0338,0.0295,0.0294,0.0293,0.0269,0.0269,0.027,0.027,0.0242,0.0241,0.0239,0.0218,0,0,0.0234,0.0233,0,0,0,0,0,0,0,0,0.0294,0.0295,0.0344,0.0341,0.0339,0.0292,0.0265,0.027,0.0269,0.0293,0.027,0.0271,0.0263,0.0259,0.0243,0.0216,0.0215,0.0234,0.0233,0.0232,0.0232,0,0,0,0,0,0,0,0.0295,0.0296,0.0332,0.0343,0.034,0.0281,0.0281,0.0264,0.0275,0.0291,0.0289,0.0285,0.0261,0.0244,0.0242,0.0215,0.0234,0.0233,0.0232,0.0231,0.0171,0.0171,0,0,0,0,0,0,0.0315,0.0298,0.0334,0.033,0.0319,0.0282,0.0282,0.0305,0.0274,0.027,0.0285,0.0284,0.0247,0.0244,0.0241,0.0247,0.0232,0.0231,0.023,0.0172,0.0171,0.0171,0,0,0,0,0,0,0.0314,0.032,0.0337,0.0312,0.031,0.0284,0.0309,0.0304,0.029,0.0269,0.0266,0.0277,0.0247,0.0243,0.0238,0.0244,0.023,0.0228,0.0173,0.0172,0.0171,0.0237,0,0,0,0,0,0,0.0313,0.032,0.0332,0.0315,0.0313,0.0321,0.0308,0.0302,0.0287,0.0286,0.0262,0.0259,0.0247,0.0241,0.0237,0.0242,0.0227,0.0173,0.0172,0.0171,0.0235,0.0238,0.0241,0,0,0,0,0,0.0312,0.0329,0.0334,0.0337,0.0335,0.0321,0.0314,0.0294,0.0286,0.0282,0.0271,0.026,0.023,0.024,0.0235,0.024,0.0174,0.0173,0.0171,0.0234,0.0238,0.0241,0,0,0,0,0,0,0.0309,0.0328,0.0332,0.0355,0.0344,0.0318,0.0312,0.0295,0.0279,0.0286,0.0261,0.0258,0.0254,0.023,0.0241,0.0214,0.0196,0.0194,0.0246,0.0249,0.0251,0.0264,0.0226,0,0,0,0,0,0.0317,0.034,0.0339,0.0356,0.0358,0.0334,0.0322,0.0314,0.0301,0.0294,0.0276,0.0256,0.024,0.0235,0.0217,0.0207,0.0162,0.02,0.0203,0.0206,0.021,0.0143,0.0141,0.0166,0.0166,0.0166,0,0,0.0322,0.0333,0.0346,0.0356,0.035,0.0357,0.0329,0.0327,0.0329,0.0295,0.0293,0.0269,0.0239,0.0233,0.0227,0.0218,0.0173,0.0204,0.0207,0.021,0.0142,0.014,0.0137,0.0165,0.0166,0.0166,0,0,0.0342,0.0358,0.0384,0.038,0.038,0.037,0.0373,0.0356,0.0349,0.0343,0.0318,0.0297,0.0272,0.0251,0.0237,0.0238,0.0191,0.0228,0.0256,0.0191,0.0189,0.0187,0.0124,0.0115,0.0228,0.0228,0.0229,0,0.0341,0.0385,0.0382,0.0399,0.04,0.0382,0.04,0.0389,0.0368,0.0364,0.0356,0.0301,0.028,0.026,0.0266,0.0247,0.0201,0.0254,0.0197,0.0193,0.019,0.0126,0.0115,0.0231,0.0231,0.0231,0.023,0,0.0383,0.0409,0.0422,0.0451,0.0446,0.0459,0.0452,0.0448,0.0437,0.0419,0.0397,0.0356,0.0322,0.0307,0.0294,0.0257,0.023,0.0212,0.0196,0.0192,0.0124,0.0112,0.0236,0.0235,0.0234,0.0233,0,0,0.04,0.0447,0.0451,0.0471,0.0477,0.048,0.0493,0.0494,0.0497,0.0467,0.0453,0.0419,0.0385,0.0365,0.0327,0.0277,0.0215,0.0242,0.0238,0.0193,0.007,0.0067,0.0053,0.0188,0.0186,0.0185,0.0033,0,0.0433,0.049,0.0495,0.0533,0.0559,0.0545,0.0554,0.0549,0.0534,0.0514,0.0464,0.0439,0.041,0.0391,0.0337,0.0247,0.0187,0.0258,0.007,0.0064,0.0072,0.0041,0.018,0.0024,0.0021,0.0019,0.0018,0,0.0469,0.0503,0.0561,0.0586,0.0595,0.0612,0.0621,0.0624,0.0596,0.058,0.054,0.0493,0.0425,0.0393,0.0235,0.0282,0.0185,0.0109,0.0101,0.0068,0.0039,0.0026,-0.0005,-0.0003,-0.0001,0.0,0.0002,0,0.049,0.0539,0.0593,0.0603,0.0632,0.0651,0.0661,0.065,0.0657,0.0619,0.0607,0.0517,0.0467,0.0338,0.0194,0.0208,0.0005,-0.0002,-0.0103,-0.0105,-0.0083,-0.0079,-0.0127,-0.0127,-0.0126,-0.0126,-0.0126,0,0.0517,0.0551,0.0615,0.064,0.0689,0.069,0.0726,0.0719,0.0708,0.0713,0.0644,0.0608,0.045,0.0322,0.0188,0.0006,-0.0008,-0.0106,-0.0146,-0.0053,-0.0044,-0.0092,-0.0086,-0.0132,-0.013,-0.0129,-0.0128,0,0.0528,0.0571,0.0625,0.0681,0.0705,0.0735,0.0779,0.0798,0.0783,0.0781,0.077,0.0663,0.0499,0.0326,0.0101,0.0002,-0.0175,-0.024,-0.0132,-0.0162,-0.0241,-0.023,-0.0366,-0.0368,-0.0369,-0.037,-0.0371,0,0.0542,0.0582,0.0663,0.07,0.0731,0.0786,0.0827,0.0838,0.0856,0.0811,0.0804,0.066,0.0569,0.0249,0.0066,-0.0207,-0.0236,-0.0328,-0.0275,-0.0242,-0.0267,-0.0254,-0.0242,-0.0373,-0.0373,-0.0373,-0.0374,0,0.0559,0.0595,0.0642,0.0733,0.079,0.0846,0.0901,0.0917,0.0921,0.0911,0.0825,0.0668,0.0477,0.0246,0.003,-0.016,-0.0264,-0.0341,-0.0339,-0.029,-0.0251,-0.0272,-0.0259,-0.0378,-0.0377,-0.0377,-0.0377,0,0.0571,0.0604,0.0681,0.0749,0.0822,0.0881,0.0909,0.0927,0.0938,0.0895,0.0859,0.0664,0.0552,0.0266,0.0066,-0.012,-0.0157,-0.0199,-0.0206,-0.0203,-0.0101,-0.0024,-0.0124,0,0,0,0,0,0.0582,0.0626,0.0693,0.0769,0.0841,0.0889,0.0948,0.0968,0.0976,0.0926,0.0896,0.0721,0.0429,0.0296,0.0109,0.0038,-0.0195,-0.0188,-0.0248,-0.0401,-0.0396,-0.0303,0,0,0,0,0,0,0.0592,0.0658,0.0691,0.0773,0.0829,0.0913,0.0951,0.0961,0.0928,0.0908,0.0751,0.0684,0.0394,0.0538,0.0108,0.0051,-0.0011,-0.0323,-0.0327,-0.0404,-0.04,-0.0396,-0.0298,0,0,0,0,0]}]]